Mytilini, Greece

8:28 PM EEST on June 25, 2017 (GMT +0300)
Odysseas Elytis

Weather History for LGMT - June, 2017

Change the Weather History Date:

Monday, June 19, 2017

  Actual Average Record
Temperature  
Mean Temperature 70 °F -  
Max Temperature 76 °F 86 °F 102 °F (2008)
Min Temperature 64 °F 70 °F 60 °F (2000)
Cooling Degree Days 5    
Growing Degree Days 20 (Base 50)    
Moisture  
Dew Point 56 °F    
Average Humidity 57    
Maximum Humidity 73    
Minimum Humidity 39    
Precipitation  
Precipitation 0.00 in 0.00 in - ()
Sea Level Pressure  
Sea Level Pressure 29.91 in    
Wind  
Wind Speed 11 mph ()    
Max Wind Speed 18 mph    
Max Gust Speed -    
Visibility 6.2 miles    
Events      
Averages and records for this station are not official NWS values.
T = Trace of Precipitation, MM = Missing Value Source: Averaged Metar Reports

Daily Weather History Graph

Daily Weather History Graph

Search for Another Location

Airport or City:

Trip Planner

Search our weather history database for the weather conditions in past years. The results will help you decide how hot, cold, wet, or windy it might be!

Date:

Astronomy

Jun. 19, 2017 Rise Set
Actual Time 5:47 AM EEST 8:42 PM EEST
Civil Twilight 5:15 AM EEST 9:14 PM EEST
Nautical Twilight 4:34 AM EEST 9:55 PM EEST
Astronomical Twilight 3:47 AM EEST 10:42 PM EEST
Moon 2:22 AM EEST (6/19) 3:14 PM EEST (6/19)
Length of Visible Light 15h 59m
Length of Day
14h 54m
Waning Crescent, 30% of the Moon is Illuminated
Jun 19
Waning Crescent
Jun 24
New
Jul 1
First Quarter
Jul 9
Full
Jul 16
Last Quarter

Hourly Weather History & Observations

Time (EEST) Temp. Dew Point Humidity Pressure Visibility Wind Dir Wind Speed Gust Speed Precip Events Conditions
4:50 AM 64.4 °F 55.4 °F 73% 29.86 in 6.2 mi Calm Calm - N/A   Partly Cloudy
5:20 AM 64.4 °F 55.4 °F 73% 29.86 in 6.2 mi West 5.8 mph - N/A   Partly Cloudy
5:50 AM 64.4 °F 55.4 °F 73% 29.86 in 6.2 mi West 5.8 mph - N/A   Partly Cloudy
6:00 AM 64 °F 55 °F 64% 29.87 in 6 mi West 5.8 mph - -   Scattered Clouds
6:20 AM 64.4 °F 55.4 °F 73% 29.86 in 6.2 mi WNW 6.9 mph - N/A   Partly Cloudy
6:50 AM 64.4 °F 55.4 °F 73% 29.89 in 6.2 mi WNW 6.9 mph - N/A   Partly Cloudy
7:20 AM 66.2 °F 55.4 °F 68% 29.89 in 6.2 mi NW 8.1 mph - N/A   Partly Cloudy
7:50 AM 68.0 °F 57.2 °F 68% 29.89 in 6.2 mi NW 13.8 mph - N/A   Scattered Clouds
8:20 AM 68.0 °F 57.2 °F 68% 29.89 in 6.2 mi NNW 16.1 mph - N/A   Scattered Clouds
8:50 AM 68.0 °F 57.2 °F 68% 29.89 in 6.2 mi NNW 15.0 mph - N/A   Scattered Clouds
9:00 AM 68 °F 57 °F 60% 29.91 in 7 mi NNW 15.0 mph - -   Partly Cloudy
9:20 AM 69.8 °F 57.2 °F 64% 29.89 in 6.2 mi NNW 15.0 mph - N/A   Scattered Clouds
9:50 AM 71.6 °F 60.8 °F 69% 29.92 in 6.2 mi NNW 15.0 mph - N/A   Partly Cloudy
10:20 AM 73.4 °F 60.8 °F 65% 29.92 in 6.2 mi NNW 16.1 mph - N/A   Partly Cloudy
10:50 AM 73.4 °F 60.8 °F 65% 29.92 in 6.2 mi NNW 18.4 mph - N/A   Partly Cloudy
11:20 AM 73.4 °F 60.8 °F 65% 29.92 in 6.2 mi NNW 18.4 mph - N/A   Partly Cloudy
11:50 AM 73.4 °F 59.0 °F 61% 29.92 in 6.2 mi NNW 18.4 mph - N/A   Partly Cloudy
12:00 PM 73 °F 58 °F 50% 29.93 in 7 mi NNW 18.4 mph - -   Scattered Clouds
12:20 PM 73.4 °F 59.0 °F 61% 29.92 in 6.2 mi NNW 18.4 mph - N/A   Partly Cloudy
12:50 PM 73.4 °F 57.2 °F 57% 29.92 in 6.2 mi NNW 16.1 mph - N/A   Partly Cloudy
1:20 PM 75.2 °F 55.4 °F 50% 29.92 in 6.2 mi NNW 16.1 mph - N/A   Partly Cloudy
1:50 PM 75.2 °F 55.4 °F 50% 29.92 in 6.2 mi NNW 13.8 mph - N/A   Scattered Clouds
2:20 PM 75.2 °F 55.4 °F 50% 29.92 in 6.2 mi NNW 16.1 mph - N/A   Scattered Clouds
2:50 PM 75.2 °F 55.4 °F 50% 29.92 in 6.2 mi NNW 18.4 mph - N/A   Scattered Clouds
3:00 PM 76 °F 56 °F 39% 29.93 in 6 mi NNW 18.4 mph - -   Partly Cloudy
3:20 PM 75.2 °F 55.4 °F 50% 29.92 in 6.2 mi NNW 18.4 mph - N/A   Scattered Clouds
3:50 PM 77.0 °F 55.4 °F 47% 29.92 in 6.2 mi NNW 16.1 mph - N/A   Scattered Clouds
4:20 PM 77.0 °F 55.4 °F 47% 29.92 in 6.2 mi NNW 16.1 mph - N/A   Scattered Clouds
4:50 PM 77.0 °F 55.4 °F 47% 29.92 in 6.2 mi NNW 17.3 mph - N/A   Scattered Clouds
5:20 PM 75.2 °F 55.4 °F 50% 29.89 in 6.2 mi NNW 16.1 mph - N/A   Scattered Clouds
5:50 PM 75.2 °F 55.4 °F 50% 29.89 in 6.2 mi NNW 17.3 mph - N/A   Scattered Clouds
6:00 PM 75 °F 56 °F 41% 29.91 in 6 mi NNW 17.3 mph - -   Partly Cloudy
6:20 PM 75.2 °F 55.4 °F 50% 29.89 in 6.2 mi NNW 16.1 mph - N/A   Scattered Clouds
6:50 PM 75.2 °F 55.4 °F 50% 29.92 in 6.2 mi NNW 16.1 mph - N/A   Scattered Clouds
7:20 PM 75.2 °F 55.4 °F 50% 29.92 in 6.2 mi NNW 13.8 mph - N/A   Scattered Clouds
7:50 PM 75.2 °F 53.6 °F 47% 29.92 in 6.2 mi NNW 12.7 mph - N/A   Partly Cloudy
8:20 PM 73.4 °F 53.6 °F 50% 29.92 in 6.2 mi NNW 11.5 mph - N/A   Partly Cloudy
8:50 PM 71.6 °F 53.6 °F 53% 29.92 in 6.2 mi NNW 11.5 mph - N/A   Partly Cloudy
9:00 PM 72 °F 53 °F 41% 29.94 in 6 mi NNW 11.5 mph - -   Scattered Clouds
9:20 PM 71.6 °F 53.6 °F 53% 29.92 in 6.2 mi NNW 11.5 mph - N/A   Partly Cloudy
9:50 PM 71.6 °F 53.6 °F 53% 29.95 in 6.2 mi NNW 12.7 mph - N/A   Partly Cloudy
10:20 PM 71.6 °F 53.6 °F 53% 29.95 in 6.2 mi NNW 13.8 mph - N/A   Partly Cloudy